Weather History for Westminster, MD

Change the Weather History Date:

Friday, May 3, 2013

  Actual Average (KTHV) Record (KTHV)
Temperature  
Mean Temperature 60 °F -  
Max Temperature 71 °F 69 °F 88 °F (2001)
Min Temperature 48 °F 43 °F 30 °F (2005)
Degree Days  
Heating Degree Days 6    
Growing Degree Days 10 (Base 50)    
Moisture  
Dew Point 40 °F    
Average Humidity 58    
Maximum Humidity 87    
Minimum Humidity 27    
Precipitation  
Precipitation 0.00 in - - ()
Sea Level Pressure  
Sea Level Pressure 30.35 in    
Wind  
Wind Speed 3 mph (ESE)    
Max Wind Speed 13 mph    
Max Gust Speed 20 mph    
Visibility 10 miles    
Events      
Averages and records for this station are not official NWS values.
T = Trace of Precipitation, MM = Missing Value Source: NWS Daily Summary

Daily Weather History Graph

Daily Weather History Graph

Search for Another Location

Airport:

Trip Planner

Search our weather history database for the weather conditions in past years. The results will help you decide how hot, cold, wet, or windy it might be!

Date:

Astronomy

May. 03, 2013 Rise Set
Actual Time 6:06 AM EDT 8:04 PM EDT
Civil Twilight 5:36 AM EDT 8:33 PM EDT
Nautical Twilight 5:01 AM EDT 9:09 PM EDT
Astronomical Twilight 4:22 AM EDT 9:48 PM EDT
Moon 2:28 AM EDT (5/3) 1:57 PM EDT (5/3)
Length of Visible Light 14h 56m
Length of Day
13h 58m
Last Quarter, 37% of the Moon is Illuminated
May 3
Last Quarter
May 9
New
May 18
First Quarter
May 25
Full
May 31
Last Quarter

Hourly Weather History & Observations

Time (EDT) Temp. Dew Point Humidity Pressure Visibility Wind Dir Wind Speed Gust Speed Precip Events Conditions
12:05 AM 53.6 °F 42.8 °F 67% 30.33 in 10.0 mi Calm Calm - N/A   Scattered Clouds
12:25 AM 51.8 °F 44.6 °F 76% 30.33 in 10.0 mi Calm Calm - N/A   Clear
12:45 AM 51.8 °F 42.8 °F 71% 30.33 in 10.0 mi Calm Calm - N/A   Clear
1:05 AM 51.8 °F 44.6 °F 76% 30.33 in 10.0 mi Calm Calm - N/A   Clear
1:25 AM 51.8 °F 44.6 °F 76% 30.32 in 10.0 mi Calm Calm - N/A   Clear
1:45 AM 50.0 °F 42.8 °F 76% 30.32 in 10.0 mi Calm Calm - N/A   Clear
2:05 AM 50.0 °F 44.6 °F 82% 30.32 in 10.0 mi Calm Calm - N/A   Clear
2:25 AM 48.2 °F 42.8 °F 82% 30.33 in 10.0 mi Calm Calm - N/A   Clear
2:45 AM 48.2 °F 42.8 °F 82% 30.33 in 10.0 mi Calm Calm - N/A   Clear
3:05 AM 48.2 °F 42.8 °F 82% 30.33 in 10.0 mi Calm Calm - N/A   Clear
3:25 AM 48.2 °F 42.8 °F 82% 30.33 in 10.0 mi Calm Calm - N/A   Clear
3:45 AM 48.2 °F 42.8 °F 82% 30.33 in 10.0 mi Calm Calm - N/A   Clear
4:05 AM 48.2 °F 42.8 °F 82% 30.34 in 10.0 mi East 4.6 mph - N/A   Clear
4:25 AM 48.2 °F 42.8 °F 82% 30.34 in 10.0 mi East 4.6 mph - N/A   Clear
5:05 AM 48.2 °F 42.8 °F 82% 30.34 in 10.0 mi Calm Calm - N/A   Clear
5:25 AM 48.2 °F 42.8 °F 82% 30.34 in 10.0 mi East 3.5 mph - N/A   Clear
5:45 AM 48.2 °F 42.8 °F 82% 30.35 in 10.0 mi Calm Calm - N/A   Clear
6:05 AM 48.2 °F 42.8 °F 82% 30.35 in 10.0 mi Calm Calm - N/A   Clear
6:25 AM 48.2 °F 42.8 °F 82% 30.36 in 10.0 mi East 3.5 mph - N/A   Clear
6:45 AM 48.2 °F 44.6 °F 87% 30.37 in 10.0 mi East 5.8 mph - N/A   Clear
7:05 AM 50.0 °F 44.6 °F 82% 30.37 in 10.0 mi ESE 3.5 mph - N/A   Clear
7:25 AM 50.0 °F 42.8 °F 76% 30.38 in 10.0 mi East 10.4 mph 16.1 mph N/A   Clear
7:45 AM 51.8 °F 41.0 °F 67% 30.38 in 10.0 mi East 12.7 mph 19.6 mph N/A   Clear
8:05 AM 51.8 °F 42.8 °F 71% 30.39 in 10.0 mi East 8.1 mph 16.1 mph N/A   Clear
8:25 AM 53.6 °F 39.2 °F 58% 30.39 in 10.0 mi East 8.1 mph - N/A   Clear
8:45 AM 53.6 °F 41.0 °F 62% 30.39 in 10.0 mi East 9.2 mph 16.1 mph N/A   Clear
9:05 AM 55.4 °F 41.0 °F 58% 30.39 in 10.0 mi East 9.2 mph - N/A   Clear
9:25 AM 55.4 °F 39.2 °F 54% 30.40 in 10.0 mi East 11.5 mph 18.4 mph N/A   Clear
9:45 AM 57.2 °F 37.4 °F 48% 30.40 in 10.0 mi ESE 9.2 mph 17.3 mph N/A   Clear
10:05 AM 57.2 °F 37.4 °F 48% 30.39 in 10.0 mi East 5.8 mph - N/A   Clear
10:25 AM 59.0 °F 39.2 °F 48% 30.40 in 10.0 mi SE 10.4 mph 16.1 mph N/A   Clear
10:45 AM 60.8 °F 35.6 °F 39% 30.40 in 10.0 mi SE 8.1 mph - N/A   Clear
11:05 AM 60.8 °F 35.6 °F 39% 30.40 in 10.0 mi ESE 9.2 mph 17.3 mph N/A   Clear
11:25 AM 62.6 °F 35.6 °F 37% 30.40 in 10.0 mi ESE 5.8 mph - N/A   Clear
11:45 AM 62.6 °F 37.4 °F 39% 30.39 in 10.0 mi ESE 8.1 mph - N/A   Clear
12:05 PM 64.4 °F 32.0 °F 30% 30.39 in 10.0 mi ESE 5.8 mph - N/A   Clear
12:25 PM 66.2 °F 32.0 °F 28% 30.39 in 10.0 mi East 4.6 mph - N/A   Clear
12:45 PM 66.2 °F 33.8 °F 30% 30.38 in 10.0 mi ESE 5.8 mph 16.1 mph N/A   Clear
1:05 PM 66.2 °F 33.8 °F 30% 30.37 in 10.0 mi SE 5.8 mph - N/A   Clear
1:25 PM 66.2 °F 33.8 °F 30% 30.36 in 10.0 mi SE 5.8 mph - N/A   Clear
1:45 PM 68.0 °F 33.8 °F 28% 30.36 in 10.0 mi East 10.4 mph 16.1 mph N/A   Clear
2:05 PM 66.2 °F 35.6 °F 32% 30.35 in 10.0 mi Calm Calm - N/A   Clear
2:25 PM 68.0 °F 37.4 °F 33% 30.35 in 10.0 mi East 4.6 mph - N/A   Clear
2:45 PM 69.8 °F 33.8 °F 27% 30.34 in 10.0 mi SE 5.8 mph - N/A   Clear
3:05 PM 69.8 °F 35.6 °F 28% 30.33 in 10.0 mi ESE 4.6 mph - N/A   Clear
3:25 PM 71.6 °F 35.6 °F 27% 30.33 in 10.0 mi SE 9.2 mph - N/A   Clear
3:45 PM 69.8 °F 35.6 °F 28% 30.33 in 10.0 mi SE 8.1 mph - N/A   Clear
4:05 PM 69.8 °F 37.4 °F 31% 30.32 in 10.0 mi East 4.6 mph - N/A   Clear
4:45 PM 69.8 °F 37.4 °F 31% 30.31 in 10.0 mi East 4.6 mph - N/A   Scattered Clouds
5:25 PM 68.0 °F 39.2 °F 35% 30.31 in 10.0 mi SSE 11.5 mph 17.3 mph N/A   Clear
5:45 PM 66.2 °F 42.8 °F 43% 30.32 in 10.0 mi SE 9.2 mph - N/A   Clear
6:05 PM 66.2 °F 42.8 °F 43% 30.32 in 10.0 mi SSE 8.1 mph - N/A   Clear
6:45 PM 64.4 °F 41.0 °F 42% 30.32 in 10.0 mi SSE 6.9 mph - N/A   Clear
6:55 PM 64.4 °F 41.0 °F 42% 30.32 in 10.0 mi SSE 10.4 mph - N/A   Clear
7:25 PM 62.6 °F 41.0 °F 45% 30.33 in 10.0 mi SSE 6.9 mph - N/A   Clear
7:45 PM 60.8 °F 41.0 °F 48% 30.34 in 10.0 mi SSE 8.1 mph - N/A   Clear
8:05 PM 57.2 °F 41.0 °F 55% 30.34 in 10.0 mi SE 6.9 mph - N/A   Clear
8:25 PM 57.2 °F 41.0 °F 55% 30.34 in 10.0 mi SE 8.1 mph - N/A   Clear
9:05 PM 55.4 °F 42.8 °F 63% 30.35 in 10.0 mi SE 4.6 mph - N/A   Clear
9:25 PM 53.6 °F 42.8 °F 67% 30.36 in 10.0 mi SE 6.9 mph - N/A   Clear
9:45 PM 53.6 °F 41.0 °F 62% 30.36 in 10.0 mi SE 8.1 mph - N/A   Clear
10:05 PM 51.8 °F 42.8 °F 71% 30.36 in 10.0 mi SE 4.6 mph - N/A   Clear
10:25 PM 51.8 °F 41.0 °F 67% 30.36 in 10.0 mi Calm Calm - N/A   Clear
10:45 PM 50.0 °F 41.0 °F 71% 30.36 in 10.0 mi Calm Calm - N/A   Clear
11:05 PM 48.2 °F 41.0 °F 76% 30.35 in 10.0 mi Calm Calm - N/A   Clear
11:25 PM 48.2 °F 41.0 °F 76% 30.35 in 10.0 mi Calm Calm - N/A   Clear
11:45 PM 48.2 °F 41.0 °F 76% 30.35 in 10.0 mi Calm Calm - N/A   Clear